FW1480 Weather Reports


Display with metric or nautical units.
time (UTC)temp
F
wind
direction
speed
MPH
gust
MPH
rain 1hr
in
rain 24hr
in
rain mn
in
humidity
%
barometer
mb
20260505215239 74 259 1.0 4.0 0.00 0.00 0.00 53 1009.9
20260505214739 74 192 1.0 7.0 0.00 0.00 0.00 53 1009.8
20260505213737 74 200 1.0 10.0 0.00 0.00 0.00 54 1009.6
20260505213238 75 156 1.0 6.0 0.00 0.00 0.00 53 1009.6
20260505212738 75 180 1.0 5.0 0.00 0.00 0.00 52 1009.4
20260505211737 75 231 1.0 8.0 0.00 0.00 0.00 51 1009.4
20260505211237 75 217 1.0 6.0 0.00 0.00 0.00 50 1009.3
20260505210737 75 134 1.0 6.0 0.00 0.00 0.00 49 1009.3
20260505210238 76 141 1.0 7.0 0.00 0.00 0.00 50 1009.3
20260505205737 76 233 2.0 10.0 0.00 0.00 0.00 50 1009.3
20260505205239 76 285 1.0 10.0 0.00 0.00 0.00 52 1009.2
20260505203239 76 200 2.0 11.0 0.00 0.00 0.00 50 1009.7
20260505202736 76 119 3.0 11.0 0.00 0.00 0.00 50 1009.7
20260505201736 77 247 2.0 9.0 0.00 0.00 0.00 49 1009.6
20260505200732 77 240 1.0 8.0 0.00 0.00 0.00 49 1009.7
20260505200233 77 181 1.0 7.0 0.00 0.00 0.00 49 1009.6
20260505195729 77 184 2.0 9.0 0.00 0.00 0.00 48 1009.7
20260505195230 77 219 2.0 9.0 0.00 0.00 0.00 50 1009.8
20260505194729 77 136 2.0 9.0 0.00 0.00 0.00 49 1009.8
20260505194227 77 195 2.0 10.0 0.00 0.00 0.00 49 1009.9
20260505193729 77 198 2.0 11.0 0.00 0.00 0.00 49 1009.8
20260505193228 77 148 2.0 11.0 0.00 0.00 0.00 48 1009.8
20260505192227 78 227 2.0 7.0 0.00 0.00 0.00 47 1009.7
20260505191730 78 191 2.0 9.0 0.00 0.00 0.00 47 1009.8
20260505191229 78 218 2.0 9.0 0.00 0.00 0.00 47 1009.7
20260505190723 78 184 2.0 12.0 0.00 0.00 0.00 47 1009.9
20260505190217 78 198 2.0 12.0 0.00 0.00 0.00 47 1009.8
20260505185711 78 166 2.0 9.0 0.00 0.00 0.00 48 1010.0
20260505184659 78 252 2.0 10.0 0.00 0.00 0.00 49 1010.2
20260505184154 77 175 2.0 10.0 0.00 0.00 0.00 47 1010.2
20260505183648 78 195 1.0 6.0 0.00 0.00 0.00 49 1010.4
20260505183142 78 212 1.0 7.0 0.00 0.00 0.00 50 1010.3
20260505182635 78 198 1.0 7.0 0.00 0.00 0.00 48 1010.5
20260505182129 78 98 1.0 9.0 0.00 0.00 0.00 49 1010.5
20260505181624 78 219 2.0 9.0 0.00 0.00 0.00 47 1010.6
20260505181117 78 191 2.0 10.0 0.00 0.00 0.00 49 1010.4
20260505180611 78 208 2.0 10.0 0.00 0.00 0.00 48 1010.6
20260505180106 79 229 2.0 8.0 0.00 0.00 0.00 49 1010.5
20260505175600 79 138 1.0 8.0 0.00 0.00 0.00 47 1010.3
20260505175054 79 128 2.0 9.0 0.00 0.00 0.00 44 1010.5
20260505174547 79 239 2.0 9.0 0.00 0.00 0.00 44 1010.5
20260505174042 80 207 1.0 9.0 0.00 0.00 0.00 45 1010.4
20260505173535 80 117 1.0 9.0 0.00 0.00 0.00 43 1010.5
20260505173029 80 181 1.0 8.0 0.00 0.00 0.00 45 1010.6
20260505172524 80 176 2.0 9.0 0.00 0.00 0.00 44 1010.6
20260505172017 80 91 1.0 9.0 0.00 0.00 0.00 44 1010.6
20260505171511 80 226 1.0 7.0 0.00 0.00 0.00 45 1010.7
20260505171005 80 193 1.0 6.0 0.00 0.00 0.00 45 1010.7
20260505165954 79 153 0.0 4.0 0.00 0.00 0.00 45 1010.8
20260505164941 78 198 1.0 9.0 0.00 0.00 0.00 46 1011.0
20260505164437 78 204 2.0 9.0 0.00 0.00 0.00 47 1011.1
20260505163937 78 238 1.0 9.0 0.00 0.00 0.00 47 1011.2
20260505163437 78 148 1.0 5.0 0.00 0.00 0.00 47 1011.4
20260505162937 78 221 0.0 4.0 0.00 0.00 0.00 47 1011.5
20260505161937 78 145 1.0 7.0 0.00 0.00 0.00 48 1011.6
20260505160937 78 171 1.0 10.0 0.00 0.00 0.00 47 1011.9
20260505160438 77 118 1.0 10.0 0.00 0.00 0.00 50 1011.9
20260505152433 74 140 1.0 6.0 0.00 0.00 0.00 53 1012.0
20260505151933 74 224 1.0 6.0 0.00 0.00 0.00 53 1011.7
20260505151433 74 139 0.0 5.0 0.00 0.00 0.00 54 1012.0
20260505150933 73 210 0.0 7.0 0.00 0.00 0.00 56 1012.2
20260505150434 73 158 0.0 7.0 0.00 0.00 0.00 56 1012.4
20260505124820 0 0.0 0.0 0.00 0.00 0.00 1012.0
20260505123730 0 0.0 0.0 0.00 0.00 0.00 1011.7
20260505123216 0 0.0 0.0 0.00 0.00 0.00 1011.9
20260505122715 0 0.0 0.0 0.00 0.00 0.00 1012.0
20260505122119 0 0.0 0.0 0.00 0.00 0.00 1012.3
20260505121525 0 0.0 0.0 0.00 0.00 0.00 1012.8
20260505121009 0 0.0 0.0 0.00 0.00 0.00 1012.7
20260505120418 0 0.0 0.0 0.00 0.00 0.00 1012.7
20260505115918 0 0.0 0.0 0.00 0.00 0.00 1012.7
20260505115416 0 0.0 0.0 0.00 0.00 0.00 1012.8
20260505114317 0 0.0 0.0 0.00 0.00 0.00 1012.7
20260505113817 0 0.0 0.0 0.00 0.00 0.00 1012.7
20260505113315 0 0.0 0.0 0.00 0.00 0.00 1012.8
20260505112726 0 0.0 0.0 0.00 0.00 0.00 1012.7
20260505112227 0 0.0 0.0 0.00 0.00 0.00 1012.7
20260505111720 0 0.0 0.0 0.00 0.00 0.00 1012.5
20260505111217 0 0.0 0.0 0.00 0.00 0.00 1012.7
20260505110715 0 0.0 0.0 0.00 0.00 0.00 1012.6
20260505110130 0 0.0 0.0 0.00 0.00 0.00 1012.6
20260505101819 0 0.0 0.0 0.00 0.00 0.00 1012.1
20260505100723 0 0.0 0.0 0.00 0.00 0.00 1011.7
20260505100219 0 0.0 0.0 0.00 0.00 0.00 1011.6
20260505095719 0 0.0 0.0 0.00 0.00 0.00 1011.7
20260505095217 0 0.0 0.0 0.00 0.00 0.00 1011.6
20260505094128 0 0.0 0.0 0.00 0.00 0.00 1011.5
20260505093615 0 0.0 0.0 0.00 0.00 0.00 1011.5
20260505093117 0 0.0 0.0 0.00 0.00 0.00 1011.4
20260505090920 0 0.0 0.0 0.00 0.00 0.00 1011.4
20260505090417 0 0.0 0.0 0.00 0.00 0.00 1011.3
20260505085827 0 0.0 0.0 0.00 0.00 0.00 1011.5
20260505085327 0 0.0 0.0 0.00 0.00 0.00 1011.4
20260505084313 0 0.0 0.0 0.00 0.00 0.00 1011.4
20260505083809 0 0.0 0.0 0.00 0.00 0.00 1011.3
20260505082624 0 0.0 0.0 0.00 0.00 0.00 1011.4
20260505082116 0 0.0 0.0 0.00 0.00 0.00 1011.5
20260505081630 0 0.0 0.0 0.00 0.00 0.00 1011.5
20260505080525 0 0.0 0.0 0.00 0.00 0.00 1011.5
20260505080023 0 0.0 0.0 0.00 0.00 0.00 1011.6
20260505075515 0 0.0 0.0 0.00 0.00 0.00 1011.5
20260505075018 0 0.0 0.0 0.00 0.00 0.00 1011.5
20260505074423 0 196 0.0 0.0 0.00 0.00 0.00 1011.4
20260505073923 53 196 0.0 0.0 0.00 0.00 0.00 76 1011.4
20260505072910 54 197 0.0 0.0 0.00 0.00 0.00 75 1011.5
20260505072411 54 197 0.0 0.0 0.00 0.00 0.00 74 1011.6
20260505071408 55 198 0.0 0.0 0.00 0.00 0.00 73 1011.4
20260505070906 55 197 0.0 0.0 0.00 0.00 0.00 72 1011.3
20260505065903 56 218 0.0 0.0 0.00 0.00 0.00 71 1011.2
20260505065356 56 220 0.0 0.0 0.00 0.00 0.00 71 1011.3
20260505064850 56 226 0.0 0.0 0.00 0.00 0.00 71 1011.4
20260505064344 56 202 0.0 0.0 0.00 0.00 0.00 70 1011.3
20260505063838 56 204 0.0 0.0 0.00 0.00 0.00 70 1011.4
20260505063332 56 226 0.0 0.0 0.00 0.00 0.00 69 1011.5
20260505062320 56 217 0.0 0.0 0.00 0.00 0.00 68 1011.4
20260505061813 57 199 0.0 1.0 0.00 0.00 0.00 68 1011.6
20260505060812 57 204 0.0 0.0 0.00 0.00 0.00 67 1011.6
20260505055309 57 203 0.0 1.0 0.00 0.00 0.00 66 1011.6
20260505054809 57 217 0.0 1.0 0.00 0.00 0.00 65 1011.9
20260505054312 57 218 0.0 0.0 0.00 0.00 0.00 65 1011.7
20260505053811 57 198 0.0 0.0 0.00 0.00 0.00 65 1011.7
20260505053310 58 167 0.0 0.0 0.00 0.00 0.00 65 1011.9
20260505052807 58 195 0.0 0.0 0.00 0.00 0.00 64 1011.9
20260505052305 58 202 0.0 0.0 0.00 0.00 0.00 63 1011.9
20260505051806 58 200 0.0 1.0 0.00 0.00 0.00 63 1012.1
20260505051305 58 209 0.0 1.0 0.00 0.00 0.00 63 1012.1
20260505050803 58 215 0.0 1.0 0.00 0.00 0.00 63 1012.1
20260505050303 58 210 0.0 1.0 0.00 0.00 0.00 63 1012.1
20260505041746 58 202 0.0 0.0 0.00 0.00 0.00 64 1012.5
20260505041246 58 205 0.0 0.0 0.00 0.00 0.00 64 1012.4
20260505040746 58 213 0.0 0.0 0.00 0.00 0.00 64 1012.4
20260505040244 58 229 0.0 0.0 0.00 0.00 0.00 64 1012.4
20260505035741 58 215 0.0 0.0 0.00 0.00 0.00 65 1012.5
20260505035241 58 208 0.0 0.0 0.00 0.00 0.00 65 1012.4
20260505034742 58 214 0.0 0.0 0.00 0.00 0.00 66 1012.4
20260505034242 57 210 0.0 0.0 0.00 0.00 0.00 66 1012.4
20260505033739 57 203 0.0 0.0 0.00 0.00 0.00 66 1012.4
20260505033239 57 210 0.0 0.0 0.00 0.00 0.00 67 1012.3
20260505032737 57 210 0.0 0.0 0.00 0.00 0.00 67 1012.4
20260505032236 58 205 0.0 0.0 0.00 0.00 0.00 67 1012.4
20260505031736 57 205 0.0 0.0 0.00 0.00 0.00 67 1012.4
20260505031236 57 171 0.0 3.0 0.00 0.00 0.00 67 1012.3
20260505030736 57 200 0.0 3.0 0.00 0.00 0.00 67 1012.4
20260505030234 57 205 0.0 0.0 0.00 0.00 0.00 68 1012.4
20260505025734 57 205 0.0 0.0 0.00 0.00 0.00 69 1012.3
20260505024734 57 217 0.0 1.0 0.00 0.00 0.00 69 1012.3
20260505024236 57 206 0.0 2.0 0.00 0.00 0.00 70 1012.4
20260505023735 57 212 0.0 2.0 0.00 0.00 0.00 70 1012.4
20260505023235 57 217 0.0 0.0 0.00 0.00 0.00 70 1012.4
20260505022735 57 207 0.0 0.0 0.00 0.00 0.00 70 1012.3
20260505021734 57 210 0.0 0.0 0.00 0.00 0.00 69 1012.4
20260505021234 57 201 0.0 0.0 0.00 0.00 0.00 69 1012.5
20260505020732 57 215 0.0 1.0 0.00 0.00 0.00 70 1012.5
20260505020233 57 205 0.0 1.0 0.00 0.00 0.00 70 1012.5
20260505015732 57 210 0.0 1.0 0.00 0.00 0.00 70 1012.5
20260505015234 57 194 0.0 0.0 0.00 0.00 0.00 70 1012.4
20260505014731 56 205 0.0 1.0 0.00 0.00 0.00 69 1012.4
20260505014231 56 200 0.0 1.0 0.00 0.00 0.00 70 1012.4
20260505013733 56 204 0.0 0.0 0.00 0.00 0.00 70 1012.4
20260505013225 56 179 0.0 0.0 0.00 0.00 0.00 69 1012.3
20260505012213 57 213 0.0 0.0 0.00 0.00 0.00 69 1012.3
20260505011707 57 205 0.0 0.0 0.00 0.00 0.00 68 1012.1
20260505011200 57 206 0.0 0.0 0.00 0.00 0.00 67 1012.0
20260505010655 57 212 0.0 0.0 0.00 0.00 0.00 67 1012.0
20260505010148 57 220 0.0 0.0 0.00 0.00 0.00 66 1012.0
20260505005643 58 226 0.0 0.0 0.00 0.00 0.00 66 1011.9
20260505005136 58 148 0.0 0.0 0.00 0.00 0.00 65 1012.0
20260505004630 58 219 0.0 1.0 0.00 0.00 0.00 64 1011.9
20260505003617 58 207 0.0 6.0 0.00 0.00 0.00 63 1011.6
20260505003111 59 204 0.0 0.0 0.00 0.00 0.00 62 1011.5
20260505002604 59 200 0.0 1.0 0.00 0.00 0.00 62 1011.5
20260505001553 60 191 0.0 0.0 0.00 0.00 0.00 60 1011.3
20260505001046 60 231 0.0 0.0 0.00 0.00 0.00 60 1011.3
20260505000034 60 215 0.0 2.0 0.00 0.00 0.00 58 1011.1
20260504235528 61 200 0.0 2.0 0.00 0.00 0.00 58 1011.1
20260504235023 61 222 0.0 2.0 0.00 0.00 0.00 57 1010.9
20260504234517 61 160 0.0 2.0 0.00 0.00 0.00 57 1010.7
20260504234010 62 158 0.0 3.0 0.00 0.00 0.00 56 1010.7
20260504233505 62 221 1.0 8.0 0.00 0.00 0.00 55 1010.6
20260504232958 62 219 1.0 8.0 0.00 0.00 0.00 55 1010.6
20260504231951 62 201 0.0 3.0 0.00 0.00 0.00 54 1010.4
20260504231451 63 210 0.0 3.0 0.00 0.00 0.00 54 1010.4
20260504230951 63 210 0.0 3.0 0.00 0.00 0.00 54 1010.3
20260504230450 63 246 0.0 6.0 0.00 0.00 0.00 53 1010.2
20260504225948 63 239 0.0 6.0 0.00 0.00 0.00 52 1010.3
20260504225448 64 210 1.0 4.0 0.00 0.00 0.00 53 1010.2
20260504224947 64 217 1.0 4.0 0.00 0.00 0.00 52 1010.2
20260504224446 64 235 1.0 6.0 0.00 0.00 0.00 51 1010.1
20260504223446 65 211 1.0 4.0 0.00 0.00 0.00 51 1010.1
20260504222948 65 167 1.0 5.0 0.00 0.00 0.00 51 1010.1
20260504221946 66 200 0.0 6.0 0.00 0.00 0.00 49 1010.1
20260504221446 67 242 0.0 5.0 0.00 0.00 0.00 48 1010.1
20260504220946 67 150 1.0 7.0 0.00 0.00 0.00 47 1010.2
20260504220446 67 250 1.0 7.0 0.00 0.00 0.00 46 1010.2
20260504215947 68 217 1.0 6.0 0.00 0.00 0.00 46 1010.3